Location: Lamy Ridge Observatory
(35.5010°N, 105.8759°W)
Time: 19:49:45
(UTC-06:00)

Hubble Space Telescope - Visible Passes

Search period start: 07 June 2026 00:00
Search period end: 17 June 2026 00:00
Orbit: 473 x 475 km, 28.5° (Epoch: 7 June)

Date Brightness Start Highest point End Pass type
(mag) Time Alt. Az. Time Alt. Az. Time Alt. Az.
7 Jun 2.2 21:45:33 10° SW 21:47:30 19° S 21:47:30 19° S visible
8 Jun 2.0 21:13:49 10° SW 21:16:35 20° SSE 21:17:59 16° SE visible
9 Jun 2.0 20:42:04 10° SW 20:44:50 20° SSE 20:47:36 10° ESE visible
9 Jun 2.4 22:20:54 10° WSW 22:22:18 19° SW 22:22:18 19° SW visible
10 Jun 1.5 21:49:07 10° WSW 21:52:19 27° S 21:52:26 27° S visible
11 Jun 1.6 21:17:20 10° WSW 21:20:32 27° S 21:22:26 18° SE visible
12 Jun 1.7 20:45:32 10° WSW 20:48:45 27° S 20:51:57 10° ESE visible
12 Jun 2.7 22:25:13 10° WSW 22:26:22 15° SW 22:26:22 15° SW visible
13 Jun 2.1 21:53:24 10° WSW 21:56:12 20° SSW 21:56:13 20° SSW visible
14 Jun 2.1 21:21:34 10° WSW 21:24:23 20° SSW 21:26:02 15° SSE visible
15 Jun 2.2 20:49:44 10° WSW 20:52:34 20° SSW 20:55:22 10° SE visible
